www.pogodaiklimat.ru

Погода и климат >> Архив погоды >> Сингапур >> Singapore


АРХИВ ПОГОДЫ в Singapore

Время (UTC), дата Ветер
(напр.,м/с)
 
Видим.   Явления Облачность Т
(С)
Тd
(С)
f
(%)
Тe
(С)
Тes
(С)
Комфортность P
(гПа)
Po
(гПа)
Тmin
(С)
Tmax
(С)
R
(мм)
R24
(мм)
S
(см)
21 12.09 ЮВ 2 14 км мгла 9/1 540 м
[Cu hum Ac trans Ci sp]
+27.2 +24.2 84 +38 +38 очень
душно
1009.8 1008.0
00 13.09 ЮЗ 1 16 км мгла 9/4 480 м
[Cu Sc Ac trans Ci sp]
+27.6 +24.7 84 +39 +40 очень
душно
1010.9 1009.1 +26.4
03 13.09 Ю 3 16 км мгла 9/3 540 м
[Cu hum Ac trans Ci sp]
+29.4 +23.6 71 +40 +45 очень
душно
1012.0 1010.2
06 13.09 ЮЗ 3 16 км мгла 9/1 600 м
[Cu hum Ac trans Ci sp]
+31.5 +22.8 60 +41 +51 опасность
перегрева
1009.5 1007.7
09 13.09 Ю 4 15 км мгла 9/3 600 м
[Cu hum Ac lent Ci sp]
+30.7 +21.8 59 +39 +41 очень
душно
1008.2 1006.4
12 13.09 ЮВ 3 14 км мгла 9/1 540 м
[Cu hum Ac trans Ci sp]
+29.0 +23.2 71 +39 +39 очень
душно
1009.3 1007.4 +32.0
15 13.09 Ю 3 14 км мгла 9/1 1500 м
[Sc Ac trans Ci sp]
+28.5 +23.2 73 +38 +38 очень
душно
1010.9 1009.1
18 13.09 ЮВ 3 14 км мгла 9/1 1500 м
[Sc Ci sp]
+27.6 +24.0 81 +38 +38 очень
душно
1009.7 1007.8
21 13.09 ЮВ 2 12 км мгла 9/1 450 м
[Cu hum Ac trans Ci sp]
+27.0 +24.2 85 +38 +38 очень
душно
1009.2 1007.3
00 14.09 ЮЗ 1 12 км мгла 9/3 480 м
[Cu hum Ac trans Ci sp]
+27.3 +24.7 86 +39 +39 очень
душно
1010.3 1008.5 +26.5
03 14.09 Ю 4 14 км мгла 9/1 600 м
[Cu hum Ci sp]
+30.2 +23.4 67 +41 +49 опасность
перегрева
1011.1 1009.3
06 14.09 ЮЗ 3 16 км мгла 9/3 600 м
[Cu med, cong Ac trans Ci sp]
+31.2 +23.2 63 +42 +49 опасность
перегрева
1009.0 1007.2
09 14.09 Ю 5 14 км мгла 9/1 660 м
[Cu hum Ac trans Ci sp]
+30.6 +23.1 64 +41 +42 опасность
перегрева
1007.7 1005.9
12 14.09 Ю 6 12 км мгла 9/1 600 м
[Cu hum Ac trans Ci sp]
+29.5 +22.8 67 +39 +39 очень
душно
1009.0 1007.1 +32.0
15 14.09 ЮВ 4 12 км мгла 9/1 600 м
[Cu hum Ac trans Ci sp]
+28.4 +23.6 75 +39 +39 очень
душно
1011.0 1009.2
18 14.09 ЮВ 4 12 км мгла 9/1 600 м
[Cu hum Ac trans Ci sp]
+27.8 +24.0 80 +39 +39 очень
душно
1010.3 1008.4
21 14.09 ЮВ 3 10 км мгла 9/1 540 м
[Cu hum Ci sp]
+27.5 +22.9 76 +37 +37 очень
душно
1009.5 1007.7
00 15.09 Ю 3 14 км мгла 9/4 540 м
[Cu Sc Ac trans Cs]
+28.0 +23.9 78 +39 +39 очень
душно
1010.9 1009.1 +27.3
03 15.09 Ю 3 14 км мгла 9/3 600 м
[Cu hum Ac trans Cs]
+29.8 +23.9 71 +41 +47 опасность
перегрева
1011.5 1009.6
06 15.09 Ю 2 16 км мгла 9/1 660 м
[Cu hum Ac trans Cs]
+30.1 +22.5 64 +39 +50 очень
душно
1008.8 1007.0
09 15.09 ЮЗ 2 12 км мгла 10/1 660 м
[Cu hum Ac trans Cs]
+29.5 +22.1 64 +38 +41 очень
душно
1007.0 1005.2
12 15.09 ЮЗ 1 10 км мгла 9/1 480 м
[Cu hum Ac trans Cs]
+28.4 +23.7 76 +39 +39 очень
душно
1007.9 1006.1 +31.0
15 15.09 ЮВ 4 14 км мгла 9/0
[Ac trans Cs]
+28.0 +23.4 76 +38 +38 очень
душно
1009.7 1007.8
18 15.09 ЮВ 3 14 км мгла 9/1 600 м
[Cu hum Ac trans Ci sp]
+27.5 +23.5 79 +37 +37 очень
душно
1008.6 1006.8
21 15.09 ЮВ 3 13 км мгла 9/1 480 м
[Cu hum Ac As Ci sp]
+27.6 +23.0 76 +37 +37 очень
душно
1008.0 1006.2
00 16.09 Ю 2 12 км мгла 9/1 500 м
[Cu hum Ac As Cs]
+27.9 +23.8 78 +38 +39 очень
душно
1009.3 1007.5 +27.2
03 16.09 Ю 5 10 км мгла 9/3 540 м
[Cu hum Ac lent Cs]
+29.9 +22.3 64 +39 +42 очень
душно
1010.1 1008.3
06 16.09 Ю 4 12 км мгла 9/1 600 м
[Cu hum Ac lent Cs]
+30.3 +22.2 62 +39 +46 очень
душно
1007.9 1006.1
09 16.09 ЮЗ 2 9000 м мгла 9/1 540 м
[Cu Sc Ac lent Cs]
+29.2 +21.9 65 +38 +41 очень
душно
1006.7 1004.9
12 16.09 Ю 2 10 км мгла 9/1 540 м
[Cu hum Ac lent Cs]
+29.1 +22.4 67 +38 +38 очень
душно
1008.2 1006.4 +30.6
15 16.09 ЮВ 3 12 км мгла 9/1 540 м
[Cu hum Ac lent Cs]
+28.3 +23.2 74 +38 +38 очень
душно
1009.7 1007.9
18 16.09 ЮВ 3 12 км мгла 9/1 480 м
[Cu hum Ac trans Cs]
+27.8 +23.8 79 +38 +38 очень
душно
1008.8 1006.9
21 16.09 Ю 3 10 км мгла 9/3 480 м
[Cu hum Ac lent Cs]
+27.4 +23.8 81 +38 +38 очень
душно
1008.1 1006.3
00 17.09 Ю 3 10 км мгла 9/1 480 м
[Cu hum Ac trans Cs]
+28.1 +23.9 78 +39 +39 очень
душно
1009.3 1007.5 +27.0
03 17.09 Ю 4 10 км мгла 9/1 600 м
[Cu hum Ci sp]
+29.9 +22.9 66 +40 +48 очень
душно
1010.0 1008.2
06 17.09 Ю 5 15 км мгла 9/8 540 м
[Cu Sc Ac trans Ci sp]
+30.2 +22.1 62 +39 +41 очень
душно
1008.5 1006.7
09 17.09 Ю 7 16 км мгла 9/4 600 м
[Cu hum Ac trans Ci sp]
+30.2 +22.5 63 +39 +40 очень
душно
1007.1 1005.3
12 17.09 Ю 4 14 км мгла 9/1 540 м
[Cu hum Ac trans Cs]
+28.7 +23.3 73 +39 +39 очень
душно
1009.2 1007.4 +31.6
15 17.09 ЮВ 4 14 км мгла 9/1 480 м
[Cu hum Ac lent Ci sp]
+28.5 +22.9 72 +38 +38 очень
душно
1010.8 1009.0
18 17.09 Ю 2 12 км мгла 9/1 480 м
[Cu hum Ac lent Cs]
+27.9 +23.5 77 +38 +38 очень
душно
1010.3 1008.4
21 17.09 Ю 2 12 км мгла 9/1 540 м
[Cu hum Ac trans Ci sp]
+27.8 +23.8 79 +38 +38 очень
душно
1009.2 1007.4
00 18.09 ЮЗ 1 10 км мгла 9/1 540 м
[Cu hum Ac lent Ci sp]
+28.0 +24.1 79 +39 +40 очень
душно
1011.1 1009.3 +27.0
03 18.09 Ю 3 16 км мгла 9/3 600 м
[Cu hum Ac trans Ci sp]
+30.0 +22.6 65 +40 +45 очень
душно
1011.9 1010.1
06 18.09 ЮЗ 2 16 км мгла 9/5 600 м
[Cu Sc Ac lent Cs]
+30.2 +23.8 69 +42 +48 опасность
перегрева
1009.3 1007.5
09 18.09 С 2 5000 м гроза, ливневой дождь 10/5 450 м
[Cb cap Ac As Cs]
+26.0 +24.1 89 +36 +37 очень
душно
1008.7 1006.9 1
12 18.09 С 2 10 км мгла {гроза, ливн. осадки} 9/1 540 м
[Cu hum Ac trans Cs]
+25.4 +22.9 86 +34 +34 очень
душно
1010.6 1008.7 +31.9 0.0
15 18.09 СВ 3 10 км мгла {дождь} 9/1 480 м
[Cu hum Ac As Ci sp]
+25.6 +23.2 87 +34 +34 очень
душно
1012.6 1010.7 0.0
18 18.09 СВ 2 10 км в посл. час дождь 9/1 480 м
[Cu hum Ac As Ci sp]
+25.2 +23.4 90 +34 +34 очень
душно
1010.4 1008.5 0.2
21 18.09 С 1 10 км мгла 9/1 540 м
[Cu hum Ac trans Ci sp]
+25.3 +23.6 90 +34 +34 очень
душно
1009.1 1007.2
00 19.09 СЗ 1 16 км мгла 9/1 540 м
[Cu hum Ac trans Ci sp]
+26.6 +24.2 87 +37 +38 очень
душно
1010.7 1008.9 +24.7
03 19.09 ЮВ 3 14 км мгла 9/1 600 м
[Cu hum Ac lent Ci sp]
+29.2 +23.8 73 +40 +48 очень
душно
1011.9 1010.1
06 19.09 ЮВ 3 16 км мгла 9/4 540 м
[Cu med, cong Ac lent Ci sp]
+30.5 +23.1 65 +41 +47 опасность
перегрева
1009.6 1007.8
09 19.09 ЮВ 5 14 км осадки на расстоянии {ливн. осадки} 9/5 450 м
[Cb cap Ac trans Cs]
+29.2 +23.3 71 +40 +40 очень
душно
1008.4 1006.5 0.0
12 19.09 СЗ 2 14 км мгла {гроза, ливн. осадки} 9/3 540 м
[Cu Sc Ac trans Cs]
+26.4 +23.8 86 +36 +36 очень
душно
1010.5 1008.7 +31.3
15 19.09 СЗ 2 12 км мгла 9/1 540 м
[Cu hum Ac trans Ci sp]
+26.1 +24.2 89 +36 +36 очень
душно
1012.1 1010.2
18 19.09 С 1 9000 м мгла 9/1 540 м
[Cu hum Ac trans Ci sp]
+25.6 +23.9 90 +35 +35 очень
душно
1010.3 1008.5

 

Местоположение метеостанции Singapore (Сингапур): широта 1.37 долгота 103.98 высота над уровнем моря 16 м.

В архиве по умолчанию представлена погода в Singapore за последнюю неделю. Архивные данные за месяц целиком и за предыдущие месяцы, начиная с января 2011 года, Вы можете получить, выбрав интересующий диапазон дат из раскрывающегося списка и нажав кнопку "Ввод!".


*Определитесь, кто Вы:
робот инопланетянин человек

Внимание! Время в таблицах - всемирное. Для получения местного времени необходимо прибавить поправку, которая в Singapore равна 7 ч.

Смотрите также архив погоды в соседних городах и на ближайших метеорологических станциях:

Погода в Batam Hang Nadim Airport (Индонезия) (31 км)
Погода в Johore Bharu / Senai (Малайзия) (45 км)
Погода в Tanjung Pinang (Индонезия) (79 км)
Погода в Singkep Dabo Airport (Индонезия) (216 км)
Погода в Malacca (Малайзия) (217 км)
Погода в Rengat Japura Airport (Индонезия) (265 км)
Погода в Kuantan (Малайзия) (281 км)
Погода в Kuala Lumpur Int Airport (Малайзия) (295 км)
Погода в Pekanbaru (Индонезия) (299 км)
Погода в Tarempa (Индонезия) (324 км)

Пояснения к столбцам:

Ветер - указаны скорость ветра в м/с - средняя за 10 мин, порывы в срок и между сроками (в фигурных скобках) и направление, откуда дует ветер: С - северный, СВ - северо-восточный, В - восточный, ЮВ - юго-восточный, Ю - южный, ЮЗ - юго-западный, З - западный, СЗ - северо-западный.
Видимость - горизонтальная дальность видимости в метрах или километрах. При видимости от 1 до 10 км при отсутствии осадков обычно наблюдается дымка, при ухудшении видимости до 1 км и менее - туман. В сухую погоду видимость может ухудшаться дымом, пылью или мглою.
Явления - указаны атмосферные явления, наблюдавшиеся в срок или в последний час перед сроком; фигурными скобками обозначены явления, наблюдавшиеся между сроками (за 1-3 часа до срока); квадратными скобками обозначены град или гололедные отложения с указанием их диаметра в мм.
Облачность - указаны через наклонную черту общая и нижняя облачность в баллах и высота нижней границы облаков в метрах; квадратными скобками обозначены формы облаков: Ci - перистые, Cs - перисто-слоистые, Cc - перисто-кучевые, Ac - высококучевые, As - высокослоистые, Sc - слоисто-кучевые, Ns - слоисто-дождевые, Cu - кучевые, Cb - кучево-дождевые. Подробнее классификацию облаков см. в Атласе облаков (PDF).
T - Температура воздуха - температура, измеренная на высоте 2 м над землей.
Td - Температура точки росы - температура, при понижении до которой содержащийся в воздухе водяной пар достигнет насыщения.
f - Относительная влажность воздуха - влажноcть воздуха, измеренная на высоте 2 м над землей.
Te - Эффективная температура - температура, которую ощущает одетый по сезону человек в тени. Характеристика душности погоды. При расчете учитывается влияние влажности воздуха и скорости ветра на теплоощущения человека.
Tes - Эффективная температура на солнце - температура, которую ощущает человек, с поправкой на солнечный нагрев. Характеристика знойности погоды. Зависит от высоты солнца над горизонтом, облачности и скорости ветра. Ночью, в пасмурную погоду, а также при ветре 12 м/с и более поправка равна нулю.
P - Атмосферное давление - приведенное к уровню моря атмосферное давление.
Po - Атмосферное давление - измеренное на уровне метеостанции атмосферное давление.
Tmin - Минимальная температура - минимум температуры воздуха на высоте 2 м над землей.
Tmax - Максимальная температура - максимум температуры воздуха на высоте 2 м над землей.
R - Количество осадков - Количество выпавших осадков за период времени, мм. При наведении курсора мыши на число - период времени, за который выпало указанное количество осадков.
R24 - Количество осадков - Количество выпавших осадков за 24 часа, мм.
S - Снежный покров - Высота снежного покрова, см. При наведении курсора мыши на число - состояние снежного покрова и степень покрытия местности в баллах.